LEMUR-2-F

Last updated on Thu Dec 01 2016 00:15:03 GMT+0000 (Coordinated Universal Time)

1 41874U 16062F 16335.78087383 .00001848 00000-0 96727-4 0 9997 2 41874 51.6412 308.5689 0006293 257.0984 170.7746 15.21021760 725
UTC large
Height (km)
Speed (km/s)
/
Latitude / Longitude
Inclination (degrees)
Orbital Period (minutes)
Azimuth
Elevation
Range (km)
Doppler Factor

Next 0 passes for location: London (51.5072 / 0.1276)

Sorry there are no passes over London.